EW1179 Weather Reports


Display with metric or nautical units.
time (UTC)temp
F
wind
direction
speed
MPH
gust
MPH
rain 1hr
in
rain 24hr
in
rain mn
in
humidity
%
barometer
mb
20260509184507 75 169 0.0 4.0 0.00 0.00 0.00 48 1012.0
20260509183109 74 221 0.0 4.0 0.00 0.00 0.00 49 1012.1
20260509181557 72 53 0.0 3.0 0.00 0.00 0.00 53 1012.3
20260509180051 70 120 0.0 2.0 0.00 0.00 0.00 58 1012.5
20260509174551 68 111 0.0 3.0 0.00 0.00 0.00 63 1012.7
20260509173045 65 83 0.0 2.0 0.00 0.00 0.00 67 1012.8
20260509171543 63 89 0.0 3.0 0.00 0.00 0.00 70 1012.9
20260509170034 61 128 0.0 1.0 0.00 0.00 0.00 79 1013.1
20260509164530 58 192 0.0 0.0 0.00 0.00 0.00 85 1013.1
20260509163036 56 288 0.0 5.0 0.00 0.00 0.00 89 1013.2
20260509161528 55 227 0.0 2.0 0.00 0.00 0.00 91 1013.3
20260509160020 53 78 0.0 0.0 0.00 0.00 0.00 92 1013.5
20260509154518 52 139 0.0 0.0 0.00 0.00 0.00 92 1013.5
20260509153031 51 36 0.0 0.0 0.00 0.00 0.00 92 1013.6
20260509151513 51 15 0.0 0.0 0.00 0.00 0.00 92 1013.5
20260509150021 51 84 0.0 0.0 0.00 0.00 0.00 92 1013.5
20260509144508 51 79 0.0 0.0 0.00 0.00 0.00 92 1013.5
20260509143007 50 140 0.0 0.0 0.00 0.00 0.00 92 1013.4
20260509141504 50 55 0.0 0.0 0.00 0.00 0.00 91 1013.5
20260509140001 49 84 0.0 0.0 0.00 0.00 0.00 91 1013.3
20260509134559 48 51 0.0 0.0 0.00 0.00 0.00 90 1013.3
20260509133056 47 51 0.0 0.0 0.00 0.00 0.00 90 1013.2
20260509131557 47 40 0.0 0.0 0.00 0.00 0.00 89 1013.1
20260509130056 46 40 0.0 0.0 0.00 0.00 0.00 88 1012.9
20260509124554 46 40 0.0 0.0 0.00 0.00 0.00 88 1012.9
20260509123114 46 40 0.0 0.0 0.00 0.00 0.00 88 1012.8
20260509121557 46 40 0.0 0.0 0.00 0.00 0.00 87 1012.9
20260509120050 46 40 0.0 0.0 0.00 0.00 0.00 87 1013.0
20260509114548 47 40 0.0 0.0 0.00 0.00 0.00 86 1013.0
20260509113047 47 40 0.0 0.0 0.00 0.00 0.00 86 1013.1
20260509111548 47 40 0.0 0.0 0.00 0.00 0.00 86 1013.1
20260509110045 48 40 0.0 0.0 0.00 0.00 0.00 85 1013.2
20260509104543 48 40 0.0 0.0 0.00 0.00 0.00 85 1013.2
20260509103047 48 40 0.0 0.0 0.00 0.00 0.00 85 1013.2
20260509101539 49 40 0.0 0.0 0.00 0.00 0.00 84 1013.2
20260509100037 49 40 0.0 0.0 0.00 0.00 0.00 84 1013.1
20260509094536 50 40 0.0 0.0 0.00 0.00 0.00 83 1013.0
20260509093040 50 40 0.0 0.0 0.00 0.00 0.00 83 1013.0
20260509091532 50 40 0.0 0.0 0.00 0.00 0.00 82 1013.1
20260509090031 51 40 0.0 0.0 0.00 0.00 0.00 81 1013.0
20260509084532 51 40 0.0 0.0 0.00 0.00 0.00 81 1013.0
20260509083031 52 321 0.0 0.0 0.00 0.00 0.00 80 1013.2
20260509081525 52 321 0.0 0.0 0.00 0.00 0.00 80 1013.1
20260509080023 52 321 0.0 0.0 0.00 0.00 0.00 78 1013.2
20260509074522 53 321 0.0 0.0 0.00 0.00 0.00 76 1013.2
20260509073019 53 321 0.0 0.0 0.00 0.00 0.00 75 1013.2
20260509071517 54 321 0.0 0.0 0.00 0.00 0.00 74 1013.2
20260509070015 54 321 0.0 0.0 0.00 0.00 0.00 72 1013.1
20260509064514 55 321 0.0 0.0 0.00 0.00 0.00 72 1013.2
20260509063017 55 321 0.0 0.0 0.00 0.00 0.00 71 1013.1
20260509061512 56 217 0.0 0.0 0.00 0.00 0.00 70 1013.1
20260509060012 57 217 0.0 0.0 0.00 0.00 0.00 69 1013.1
20260509054511 58 217 0.0 0.0 0.00 0.00 0.00 68 1013.1
20260509053010 58 217 0.0 0.0 0.00 0.00 0.00 67 1013.0
20260509051510 59 217 0.0 0.0 0.00 0.00 0.00 66 1012.8
20260509050026 60 290 0.0 0.0 0.00 0.00 0.00 65 1012.8
20260509044510 60 290 0.0 0.0 0.00 0.00 0.00 65 1012.6
20260509043009 62 294 0.0 0.0 0.00 0.00 0.00 64 1012.4
20260509041508 63 289 0.0 0.0 0.00 0.00 0.00 63 1012.1
20260509040008 64 224 0.0 0.0 0.00 0.00 0.00 60 1011.9
20260509034507 65 240 0.0 0.0 0.00 0.00 0.00 56 1011.7
20260509033006 67 253 0.0 0.0 0.00 0.00 0.00 55 1011.5
20260509031510 68 296 0.0 0.0 0.00 0.00 0.00 53 1011.4
20260509030006 69 275 0.0 0.0 0.00 0.00 0.00 51 1011.2
20260509024505 71 286 0.0 0.0 0.00 0.00 0.00 48 1011.0
20260509023007 72 333 0.0 0.0 0.00 0.00 0.00 46 1010.8
20260509021505 72 77 0.0 0.0 0.00 0.00 0.00 45 1010.7
20260509020004 73 130 0.0 0.0 0.00 0.00 0.00 44 1010.6
20260509014504 73 112 0.0 0.0 0.00 0.00 0.00 44 1010.7
20260509013003 74 150 0.0 6.0 0.00 0.00 0.00 43 1010.6
20260509011504 74 301 0.0 4.0 0.00 0.00 0.00 40 1010.6
20260509010010 74 256 1.0 6.0 0.00 0.00 0.00 39 1010.5
20260509004503 75 229 1.0 8.0 0.00 0.00 0.00 38 1010.6
20260509003100 76 288 0.0 8.0 0.00 0.00 0.00 40 1010.8
20260509001600 76 257 0.0 7.0 0.00 0.00 0.00 40 1010.9
20260509000108 76 289 1.0 6.0 0.00 0.00 0.00 39 1010.9
20260508234609 76 252 2.0 8.0 0.00 0.00 0.00 42 1010.9
20260508233059 77 211 1.0 5.0 0.00 0.00 0.00 46 1011.1
20260508231554 77 240 1.0 7.0 0.00 0.00 0.00 49 1011.2
20260508230101 78 288 1.0 9.0 0.00 0.00 0.00 48 1011.4
20260508224555 79 229 0.0 8.0 0.00 0.00 0.00 48 1011.4
20260508223050 80 231 0.0 6.0 0.00 0.00 0.00 47 1011.7
20260508221548 81 199 1.0 8.0 0.00 0.00 0.00 48 1011.9
20260508220046 81 233 2.0 7.0 0.00 0.00 0.00 47 1012.1
20260508214549 82 205 1.0 7.0 0.00 0.00 0.00 45 1012.4
20260508213052 83 215 0.0 5.0 0.00 0.00 0.00 46 1012.4
20260508211542 85 229 1.0 6.0 0.00 0.00 0.00 43 1012.5
20260508210043 85 258 0.0 3.0 0.00 0.00 0.00 43 1012.5
20260508204538 84 355 0.0 4.0 0.00 0.00 0.00 42 1012.7
20260508203035 83 64 0.0 5.0 0.00 0.00 0.00 43 1012.9
20260508201529 82 128 0.0 2.0 0.00 0.00 0.00 46 1013.2
20260508200031 80 181 0.0 3.0 0.00 0.00 0.00 45 1013.4
20260508194524 80 184 0.0 3.0 0.00 0.00 0.00 48 1013.6
20260508193018 79 337 0.0 5.0 0.00 0.00 0.00 47 1013.8
20260508191523 77 79 0.0 3.0 0.00 0.00 0.00 50 1014.1
20260508190013 76 79 0.0 6.0 0.00 0.00 0.00 49 1014.3